Dewpoint
61 61 61 61 60 58 53 43 29 27 24 23 25 32 47 49 50 52 54 58 58 54 52 50 49 48 49 49 49 50 51 50 50 51 51 51 52 52 53 53 53 53 53
60 61 60 60 59 57 46 36 29 27 26 24 23 29 46 48 49 49 48 51 55 51 48 47 46 46 46 48 48 49 49 49 49 50 50 51 51 50 51 51 52 52 53
59 60 59 58 58 53 34 30 28 28 27 24 23 25 40 45 47 46 42 43 45 51 46 45 43 42 45 44 45 45 45 46 47 48 49 49 49 49 49 50 50 50 51
59 58 59 58 52 41 33 31 30 28 26 25 22 26 28 42 44 42 39 38 38 36 41 41 39 39 39 40 41 41 41 42 43 45 46 47 48 48 48 48 49 49 49
58 58 58 56 41 35 33 31 29 26 24 24 23 30 29 32 40 38 35 34 36 30 34 39 39 37 35 36 38 39 40 40 41 42 43 45 46 46 47 47 48 48 48
57 57 55 49 37 33 32 30 27 26 25 25 27 29 31 29 34 36 34 29 31 25 25 22 24 26 37 35 35 37 38 37 38 39 42 42 44 46 46 47 47 47 47
56 55 52 46 36 32 31 28 26 24 24 27 30 29 28 29 27 28 28 28 25 23 22 23 23 23 24 33 34 36 38 37 36 38 40 42 43 45 46 46 46 47 47
57 54 49 44 38 34 30 28 28 27 25 26 26 28 24 25 26 24 26 25 22 22 23 22 22 22 23 24 30 36 36 37 36 37 39 42 43 45 46 46 46 46 47
56 52 48 44 38 36 33 29 29 28 26 24 25 28 24 24 25 22 23 22 21 23 22 23 22 22 21 23 30 33 35 35 37 40 42 43 44 45 46 47 47 47 47
56 52 49 48 39 36 34 31 30 31 28 24 24 21 21 25 21 16 21 22 22 20 20 23 22 21 22 25 28 33 34 36 39 41 43 44 45 45 46 46 47 47 46
55 54 50 49 42 42 36 34 33 31 30 28 27 24 23 23 20 18 16 20 22 23 22 22 22 21 21 22 24 30 33 35 38 40 42 43 44 45 46 46 46 46 45
54 52 49 46 44 42 41 37 34 33 31 30 28 26 27 24 22 20 18 19 19 20 23 23 22 21 21 21 24 30 32 34 36 38 41 43 44 44 44 44 44 44 43
50 48 48 45 43 43 42 41 39 36 32 30 26 27 26 25 25 23 21 20 19 21 22 22 22 21 21 21 24 29 31 32 34 37 40 42 41 41 41 41 42 42 43
52 50 45 45 43 42 40 39 39 36 32 33 26 26 27 26 26 25 24 22 19 20 21 19 21 21 20 21 26 29 26 31 32 35 37 38 37 37 38 38 39 39 39
52 46 46 45 43 41 38 37 34 32 32 32 29 26 27 28 27 27 26 24 20 16 18 19 18 20 20 21 24 27 26 30 32 32 33 34 34 34 35 36 36 37 37
47 46 44 42 42 39 35 33 29 28 28 29 29 26 25 26 27 27 27 25 23 21 18 19 18 19 19 20 25 27 26 30 31 32 32 32 33 34 34 35 35 35 36
44 43 42 41 39 37 33 30 28 27 26 27 27 27 25 25 27 26 25 24 24 23 20 20 20 20 20 21 23 24 26 25 25 31 32 32 33 33 34 34 34 34 35
41 41 39 38 35 32 29 28 27 30 31 30 29 30 28 23 25 25 26 23 21 21 20 19 20 21 22 23 24 24 24 24 25 29 32 32 32 32 33 33 33 33 34
40 40 38 34 32 31 30 29 30 31 31 32 32 30 26 24 23 24 23 23 22 21 21 21 21 23 24 24 24 24 24 25 26 28 29 30 30 32 33 33 33 33 33
37 35 33 32 32 32 32 33 32 32 31 30 30 29 27 25 25 24 22 21 21 21 21 22 22 22 23 24 24 24 22 22 22 22 26 28 30 30 31 32 32 32 32
32 32 33 33 34 34 34 34 33 32 32 29 28 26 25 25 27 26 23 24 23 23 23 21 22 22 22 24 23 23 22 22 22 23 23 23 24 24 24 28 28 29 30
34 35 35 35 35 35 37 35 31 29 29 28 29 27 24 24 25 26 26 27 26 24 20 19 17 22 23 23 22 22 22 22 21 23 22 22 23 22 22 22 27 29 31
35 35 36 35 36 36 37 36 34 31 30 29 27 23 21 21 25 22 25 27 27 28 28 25 24 23 22 22 22 21 23 24 23 23 22 21 21 20 21 20 27 29 30
34 34 34 34 35 37 38 37 35 30 29 28 25 23 23 22 24 24 24 25 25 25 25 24 24 24 24 24 25 27 25 23 23 22 22 19 19 19 19 20 27 28 30
33 33 33 33 32 33 37 33 29 24 21 21 21 22 23 23 25 26 25 23 24 23 24 26 26 27 28 27 25 22 20 19 18 17 19 19 19 18 19 19 20 27 28
32 32 32 32 35 33 35 33 24 20 19 19 21 21 24 22 25 26 25 23 20 20 21 22 20 19 20 19 25 21 18 16 18 17 18 19 18 19 18 20 19 21 20
Lifted_Index
-3 -2 -2 -1 0 1 2 3 4 4 4 5 8 11 11 9 8 7 7 6 7 8 9 9 10 10 10 10 10 10 10 10 10 10 10 10 10 10 10 9 9 9 9
-2 -2 -2 -1 -0 1 2 3 4 4 4 5 8 11 11 10 9 8 8 8 9 10 10 10 11 11 10 10 10 10 11 11 10 10 10 10 10 10 10 10 10 10 9
-1 -1 -1 -1 -0 1 1 2 3 3 4 5 8 11 11 11 10 10 10 11 12 12 12 12 12 12 12 12 11 11 12 12 11 11 11 11 11 11 11 11 10 10 10
0 0 -0 -1 -0 0 1 1 2 2 3 5 8 10 11 11 11 12 13 13 14 14 14 14 14 14 14 13 13 13 13 13 12 12 12 12 12 12 11 11 11 11 11
1 1 0 -0 -0 -0 0 0 1 1 2 4 7 9 10 11 12 12 13 14 14 15 15 15 16 16 16 15 15 14 14 14 13 13 13 13 13 12 12 12 12 12 12
0 0 -0 -1 -0 -0 -0 -0 0 1 2 4 7 8 9 11 12 13 13 13 14 14 15 15 16 16 16 16 16 16 15 15 15 15 14 14 14 13 13 13 12 12 12
-1 -1 -1 -1 -0 -0 -0 -0 -0 1 2 5 7 8 8 9 11 12 12 13 13 14 14 15 16 16 16 17 17 17 17 16 16 16 15 15 14 14 13 13 13 12 12
-2 -2 -2 -1 -0 0 0 0 0 1 2 5 7 7 7 8 9 10 11 12 12 13 14 15 16 16 17 17 18 18 18 17 17 16 16 15 14 14 13 13 13 13 12
-3 -3 -2 -1 -1 -0 -0 -0 -0 0 2 4 7 7 7 6 7 8 9 10 11 12 13 14 15 16 17 17 18 18 19 18 17 17 16 15 14 14 13 13 13 12 12
-3 -3 -3 -2 -1 -1 -1 -1 -1 -0 1 3 6 7 7 7 6 7 7 8 9 11 13 14 15 16 17 18 18 19 19 19 18 17 16 15 15 14 14 13 13 13 13
-2 -2 -2 -2 -2 -2 -2 -2 -1 -1 1 3 5 6 7 7 6 6 6 7 8 10 12 14 15 16 17 18 19 19 20 20 19 18 17 16 15 15 14 14 14 14 14
-2 -2 -2 -2 -2 -2 -2 -2 -1 -1 0 3 5 6 6 7 6 6 6 6 7 8 11 13 15 17 18 19 19 20 21 21 20 19 18 17 16 16 15 15 15 15 15
-2 -2 -2 -2 -2 -2 -2 -1 -1 -1 0 2 5 6 7 7 7 7 7 7 6 7 9 12 15 17 18 19 20 21 21 21 21 20 19 18 17 17 17 17 16 16 16
-2 -2 -2 -2 -1 -1 -1 -1 -1 -1 0 3 5 7 7 7 8 8 7 7 7 6 7 10 14 17 18 20 20 21 21 22 22 21 20 19 19 19 18 18 17 17 17
-1 -1 -2 -2 -1 -1 -1 -1 -1 0 1 3 6 7 8 8 9 8 8 7 7 6 6 9 13 17 19 20 21 21 21 22 22 22 21 20 20 20 19 18 18 17 17
-1 -1 -1 -2 -1 -1 -1 -1 -0 1 3 5 7 8 9 9 9 9 9 9 8 7 7 10 14 18 19 20 21 21 22 22 22 22 21 21 20 20 19 19 18 18 18
-1 -1 -1 -2 -2 -1 -1 -0 1 2 5 7 9 9 9 9 9 10 10 10 10 10 10 12 16 19 20 20 21 21 22 22 22 22 21 21 20 20 19 19 19 18 18
-0 -1 -1 -1 -1 -1 -0 1 2 4 7 9 10 9 10 10 10 9 10 12 13 14 14 15 17 19 20 20 21 21 21 21 22 21 21 21 20 20 20 19 19 19 18
0 -0 -1 -1 -1 0 1 3 5 7 9 10 10 10 11 11 11 10 11 13 15 17 17 17 18 19 20 20 21 21 21 21 21 21 21 20 20 20 20 19 18 17 17
1 0 0 0 1 2 4 6 8 9 10 11 11 11 13 13 12 12 14 15 17 18 18 18 18 19 20 20 20 20 20 20 20 20 20 20 20 19 18 17 16 15 15
0 0 1 2 3 5 8 9 10 10 10 11 11 12 14 15 16 16 17 18 19 19 19 18 18 19 19 20 20 20 20 19 19 18 18 18 17 16 15 15 14 14 14
0 1 3 4 6 8 9 10 10 10 10 11 11 13 15 18 19 19 20 21 21 20 19 19 19 19 19 20 20 20 19 18 17 17 17 16 15 14 13 13 13 13 13
3 4 6 7 8 9 10 11 11 11 11 12 13 15 17 19 20 21 21 22 21 21 20 20 20 20 20 21 21 20 19 17 17 16 15 14 14 13 13 13 12 12 12
6 7 9 10 10 11 11 12 12 13 14 16 18 19 19 20 21 21 22 22 21 21 21 21 21 21 21 21 20 19 18 17 15 15 14 14 13 13 12 12 12 12 11
9 9 10 11 11 12 13 14 14 15 17 19 20 20 20 21 22 22 22 22 21 21 21 21 21 21 21 20 19 18 17 15 14 14 14 14 13 13 12 12 12 12 12
10 10 11 11 12 12 14 16 17 18 19 19 20 21 21 22 22 22 22 21 21 21 21 21 21 21 20 19 19 17 16 14 13 13 14 14 14 13 12 11 12 12 12